User: anonymous   Login
Location: Trondheim
(63.4170°N, 10.4170°E)
Time: 11:14:59
(UTC+01:00)
Language:

Iridium 82 - Orbit

View from above orbital plane
View from above orbital plane
View from above satellite
View from above satellite

Ground track
Ground track

The orbit data is extracted from the following two-line orbital elements,

1 25467U 98051A   16338.47309809  .00000218  00000-0  70619-4 0  9996
2 25467  86.3950 103.9916 0002042 105.1253 255.0169 14.34213010958561
Epoch (UTC): 03 December 2016 11:21:15
Eccentricity: 0.0002042
inclination: 86.3950°
perigee height: 776 km
apogee height: 779 km
right ascension of ascending node: 103.9916°
argument of perigee: 105.1253°
revolutions per day: 14.34213010
mean anomaly at epoch: 255.0169°
orbit number at epoch: 95856

The dashed part of the orbit path shows where the satellite is in the earth's shadow,  

DLR